Location: Newark
(54.6833°N, 25.2833°E)
Time: 16:46:25
(UTC+00:00)

Altair - Pass Details

Date: 12 November 2019
Orbit: 1502 x 1682 km, 47.2° (Epoch: 10 December)

Event Time Altitude Azimuth Distance (km) Brightness Sun altitude
Rises 04:56:29 0° 245° (WSW) 4,633 9.6 -6.9°
Reaches altitude 10° 04:59:34 10° 240° (WSW) 3,659 9.1 -6.4°
Maximum altitude 05:08:21 52° 168° (SSE) 1,837 8.2 -5.3°
Drops below altitude 10° 05:17:23 10° 96° (E) 3,760 11.0 -4.1°
Sets 05:20:35 0° 92° (E) 4,770 11.5 -3.7°
